Wrangell, AK

2:29 PM AKST on February 05, 2016 (GMT -0900)
Wrangell

Weather History for PAWG - March, 2013

Change the Weather History Date:

Saturday, March 9, 2013

  Actual Average Record
Temperature  
Mean Temperature 36 °F -  
Max Temperature 39 °F 42 °F 55 °F (1984)
Min Temperature 33 °F 30 °F 14 °F (1951)
Degree Days  
Heating Degree Days 29    
Moisture  
Dew Point 31 °F    
Average Humidity 77    
Maximum Humidity 87    
Minimum Humidity 70    
Precipitation  
Precipitation 0.38 in - - ()
Sea Level Pressure  
Sea Level Pressure 30.14 in    
Wind  
Wind Speed 7 mph (SE)    
Max Wind Speed 14 mph    
Max Gust Speed 18 mph    
Visibility 10 miles    
Events      
Averages and records for this station are not official NWS values.
T = Trace of Precipitation, MM = Missing Value Source: NWS Daily Summary

Daily Weather History Graph

Daily Weather History Graph

Search for Another Location

Airport or City:

Trip Planner

Search our weather history database for the weather conditions in past years. The results will help you decide how hot, cold, wet, or windy it might be!

Date:

Astronomy

Mar. 09, 2013 Rise Set
Actual Time 6:19 AM AKST 5:41 PM AKST
Civil Twilight 5:42 AM AKST 6:18 PM AKST
Nautical Twilight 4:58 AM AKST 7:02 PM AKST
Astronomical Twilight 4:13 AM AKST 7:47 PM AKST
Moon 5:06 AM AKST (3/9) 3:37 PM AKST (3/9)
Length of Visible Light 12h 36m
Length of Day
11h 21m
Waning Crescent, 5% of the Moon is Illuminated
Mar 9
Waning Crescent
Mar 11
New
Mar 19
First Quarter
Mar 27
Full
Apr 2
Last Quarter

Hourly Weather History & Observations

Time (AKST) Temp. Windchill Dew Point Humidity Pressure Visibility Wind Dir Wind Speed Gust Speed Precip Events Conditions
12:16 AM 39.2 °F 33.6 °F 30.2 °F 70% 30.19 in 10.0 mi SE 8.1 mph - N/A   Overcast
12:36 AM 37.4 °F 32.8 °F 30.2 °F 75% 30.19 in 10.0 mi SSE 5.8 mph - N/A   Overcast
12:56 AM 37.4 °F 32.8 °F 30.2 °F 75% 30.19 in 10.0 mi SSE 5.8 mph - N/A   Overcast
1:16 AM 37.4 °F 32.1 °F 30.2 °F 75% 30.18 in 10.0 mi SSE 6.9 mph - N/A   Overcast
1:36 AM 37.4 °F 31.4 °F 30.2 °F 75% 30.18 in 10.0 mi SSE 8.1 mph - N/A   Overcast
1:56 AM 37.4 °F 32.8 °F 30.2 °F 75% 30.18 in 10.0 mi SSE 5.8 mph - N/A   Overcast
2:16 AM 37.4 °F 32.1 °F 30.2 °F 75% 30.18 in 10.0 mi SE 6.9 mph - N/A   Overcast
2:36 AM 37.4 °F 32.8 °F 30.2 °F 75% 30.18 in 10.0 mi SE 5.8 mph - N/A   Overcast
2:56 AM 37.4 °F 32.1 °F 30.2 °F 75% 30.18 in 10.0 mi South 6.9 mph - N/A   Overcast
3:16 AM 37.4 °F 32.1 °F 30.2 °F 75% 30.18 in 10.0 mi ESE 6.9 mph - N/A   Overcast
3:36 AM 37.4 °F 32.1 °F 30.2 °F 75% 30.18 in 10.0 mi ESE 6.9 mph - N/A   Overcast
3:56 AM 37.4 °F 32.1 °F 30.2 °F 75% 30.17 in 10.0 mi SSE 6.9 mph - N/A   Overcast
4:16 AM 37.4 °F 32.8 °F 30.2 °F 75% 30.17 in 10.0 mi SSE 5.8 mph - N/A   Overcast
4:36 AM 37.4 °F 30.8 °F 30.2 °F 75% 30.17 in 10.0 mi SE 9.2 mph - N/A   Overcast
4:56 AM 39.2 °F 33.0 °F 32.0 °F 75% 30.16 in 10.0 mi ESE 9.2 mph - N/A   Overcast
5:16 AM 39.2 °F 34.2 °F 30.2 °F 70% 30.15 in 10.0 mi ESE 6.9 mph - N/A   Overcast
5:36 AM 39.2 °F 34.2 °F 30.2 °F 70% 30.15 in 10.0 mi East 6.9 mph - N/A   Overcast
5:56 AM 39.2 °F 35.9 °F 30.2 °F 70% 30.15 in 10.0 mi South 4.6 mph - N/A   Overcast
6:16 AM 37.4 °F - 28.4 °F 70% 30.15 in 10.0 mi Calm Calm - N/A   Overcast
6:36 AM 37.4 °F 32.8 °F 30.2 °F 75% 30.15 in 10.0 mi NW 5.8 mph - N/A   Overcast
6:56 AM 37.4 °F 34.9 °F 30.2 °F 75% 30.15 in 10.0 mi NW 3.5 mph - N/A   Overcast
7:16 AM 37.4 °F 34.9 °F 30.2 °F 75% 30.14 in 10.0 mi NW 3.5 mph - N/A   Overcast
7:36 AM 37.4 °F - 30.2 °F 75% 30.14 in 10.0 mi Calm Calm - N/A   Overcast
7:56 AM 37.4 °F - 30.2 °F 75% 30.14 in 10.0 mi Calm Calm - N/A   Overcast
8:16 AM 37.4 °F - 32.0 °F 81% 30.13 in 10.0 mi Calm Calm - N/A   Overcast
8:36 AM 37.4 °F - 32.0 °F 81% 30.13 in 10.0 mi Calm Calm - N/A   Overcast
8:56 AM 39.2 °F 34.2 °F 32.0 °F 75% 30.12 in 10.0 mi SE 6.9 mph - N/A   Overcast
9:16 AM 39.2 °F 32.5 °F 33.8 °F 81% 30.12 in 10.0 mi East 10.4 mph - N/A   Overcast
9:36 AM 39.2 °F 33.6 °F 33.8 °F 81% 30.11 in 10.0 mi East 8.1 mph - N/A   Overcast
9:56 AM 39.2 °F 33.0 °F 33.8 °F 81% 30.11 in 10.0 mi East 9.2 mph - N/A   Overcast
10:16 AM 39.2 °F 33.6 °F 33.8 °F 81% 30.11 in 10.0 mi East 8.1 mph - 0.01 in   Overcast
10:36 AM 39.2 °F 33.0 °F 33.8 °F 81% 30.10 in 10.0 mi East 9.2 mph - 0.01 in   Overcast
10:56 AM 39.2 °F 34.2 °F 33.8 °F 81% 30.10 in 10.0 mi ESE 6.9 mph - 0.01 in   Overcast
11:16 AM 39.2 °F 32.0 °F 33.8 °F 81% 30.09 in 10.0 mi East 11.5 mph - N/A   Overcast
11:36 AM 39.2 °F 32.0 °F 33.8 °F 81% 30.09 in 10.0 mi East 11.5 mph - N/A   Overcast
11:56 AM 39.2 °F 32.5 °F 33.8 °F 81% 30.09 in 10.0 mi ESE 10.4 mph - 0.01 in   Overcast
12:16 PM 39.2 °F 32.5 °F 33.8 °F 81% 30.08 in 10.0 mi SE 10.4 mph - N/A   Overcast
12:36 PM 39.2 °F 32.0 °F 33.8 °F 81% 30.06 in 10.0 mi SE 11.5 mph - 0.01 in   Overcast
12:56 PM 39.2 °F 32.5 °F 33.8 °F 81% 30.05 in 10.0 mi SE 10.4 mph - 0.01 in   Overcast
1:16 PM 39.2 °F 31.2 °F 32.0 °F 75% 30.04 in 10.0 mi SE 13.8 mph 18.4 mph N/A   Overcast
1:36 PM 39.2 °F 32.5 °F 32.0 °F 75% 30.03 in 10.0 mi SE 10.4 mph - N/A   Overcast
1:56 PM 39.2 °F 31.6 °F 32.0 °F 75% 30.03 in 10.0 mi SE 12.7 mph - N/A   Overcast
2:16 PM 39.2 °F 33.0 °F 32.0 °F 75% 30.03 in 10.0 mi SSE 9.2 mph - 0.01 in   Overcast
2:36 PM 39.2 °F 34.2 °F 33.8 °F 81% 30.02 in 10.0 mi SE 6.9 mph - 0.02 in   Overcast
2:56 PM 39.2 °F 32.5 °F 33.8 °F 81% 30.01 in 10.0 mi ESE 10.4 mph - 0.03 in   Overcast
3:16 PM 39.2 °F 34.2 °F 33.8 °F 81% 30.01 in 10.0 mi ESE 6.9 mph - N/A   Overcast
3:36 PM 39.2 °F 33.6 °F 33.8 °F 81% 30.00 in 10.0 mi ENE 8.1 mph - 0.01 in   Overcast
3:56 PM 39.2 °F 33.6 °F 33.8 °F 81% 29.99 in 10.0 mi ENE 8.1 mph - 0.02 in   Overcast
4:16 PM 37.4 °F 32.8 °F 33.8 °F 87% 30.00 in 10.0 mi East 5.8 mph - 0.04 in   Overcast
4:36 PM 37.4 °F 34.9 °F 33.8 °F 87% 30.01 in 10.0 mi East 3.5 mph - 0.07 in   Overcast
4:56 PM 37.4 °F 34.9 °F 32.0 °F 81% 30.02 in 10.0 mi SW 3.5 mph - 0.10 in   Overcast
5:16 PM 35.6 °F 29.2 °F 30.2 °F 81% 30.03 in 10.0 mi WSW 8.1 mph - 0.02 in   Overcast
5:36 PM 33.8 °F 26.4 °F 28.4 °F 81% 30.06 in 10.0 mi WSW 9.2 mph - 0.05 in   Overcast
5:56 PM 33.8 °F 28.6 °F 28.4 °F 81% 30.09 in 5.0 mi WSW 5.8 mph - 0.06 in   Overcast
6:16 PM 33.8 °F - 28.4 °F 81% 30.11 in 2.0 mi Calm Calm - 0.01 in   Overcast
6:36 PM 33.8 °F 28.6 °F 28.4 °F 81% 30.14 in 7.0 mi SW 5.8 mph - 0.03 in   Overcast
6:56 PM 35.6 °F 29.9 °F 28.4 °F 75% 30.15 in 9.0 mi ESE 6.9 mph - 0.07 in   Overcast
7:16 PM 33.8 °F 29.6 °F 28.4 °F 81% 30.17 in 9.0 mi East 4.6 mph - 0.01 in   Overcast
7:36 PM 35.6 °F - 30.2 °F 81% 30.19 in 9.0 mi Calm Calm - 0.03 in   Overcast
7:56 PM 35.6 °F - 28.4 °F 75% 30.20 in 9.0 mi Calm Calm - 0.04 in   Overcast
8:16 PM 35.6 °F 29.9 °F 30.2 °F 81% 30.21 in 9.0 mi SSW 6.9 mph - 0.02 in   Overcast
8:36 PM 35.6 °F 26.6 °F 28.4 °F 75% 30.22 in 9.0 mi South 13.8 mph 18.4 mph 0.03 in   Overcast
8:56 PM 35.6 °F 28.6 °F 28.4 °F 75% 30.23 in 9.0 mi West 9.2 mph - 0.03 in   Overcast
9:16 PM 37.4 °F 30.8 °F 28.4 °F 70% 30.24 in 9.0 mi SSW 9.2 mph 17.3 mph N/A   Overcast
9:36 PM 37.4 °F 32.8 °F 30.2 °F 75% 30.25 in 9.0 mi SW 5.8 mph - N/A   Overcast
9:56 PM 37.4 °F - 30.2 °F 75% 30.26 in 9.0 mi Calm Calm - N/A   Overcast
10:16 PM 35.6 °F 29.2 °F 30.2 °F 81% 30.27 in 9.0 mi South 8.1 mph - N/A   Overcast
10:36 PM 37.4 °F 29.8 °F 28.4 °F 70% 30.27 in 9.0 mi SSW 11.5 mph 16.1 mph N/A   Overcast
10:56 PM 35.6 °F 29.2 °F 28.4 °F 75% 30.28 in 9.0 mi South 8.1 mph - N/A   Overcast
11:16 PM 37.4 °F 30.3 °F 28.4 °F 70% 30.29 in 10.0 mi SSW 10.4 mph - N/A   Mostly Cloudy
11:36 PM 37.4 °F 32.1 °F 30.2 °F 75% 30.30 in 10.0 mi SW 6.9 mph - N/A   Mostly Cloudy
11:56 PM 37.4 °F 33.8 °F 30.2 °F 75% 30.31 in 10.0 mi South 4.6 mph - N/A   Overcast